Location: *
(28.3744°N, 81.5492°W)
Time: 15:25:03
(UTC+00:00)

SJ-6B - Pass Details

Date: 15 June 2025
Orbit: 466 x 518 km, 97.4° (Epoch: 15 July)

Event Time Altitude Azimuth Distance (km) Brightness Sun altitude
Rises 01:14:07 0° 186° (S) 2,627 6.0 -10.2°
Reaches altitude 10° 01:16:21 10° 196° (SSW) 1,744 5.2 -10.6°
Maximum altitude 01:19:47 33° 262° (W) 878 4.3 -11.2°
Drops below altitude 10° 01:23:14 10° 328° (NNW) 1,747 6.6 -11.8°
Sets 01:25:28 0° 337° (NNW) 2,632 7.4 -12.2°
